This is the latest recevied weather packets stored in our database for station/object W2JBO-5. If no packets are shown the sender has not sent any weather packets the latest 1 day(s).
| Time | Temp. | Humidity | Pressure | Rain* | Wind** | Luminosity | Snow |
|---|---|---|---|---|---|---|---|
| 1778008709 | 27.78° C | 71% | - | 0 mm | 2.68 m/s, 199° | - | - |
| 1778008407 | 27.78° C | 72% | - | 0 mm | 1.79 m/s, 212° | - | - |
| 1778008103 | 27.22° C | 71% | - | 0 mm | 1.79 m/s, 183° | - | - |
| 1778007799 | 27.22° C | 71% | - | 0 mm | 2.24 m/s, 230° | - | - |
| 1778007495 | 27.22° C | 71% | - | 0 mm | 1.34 m/s, 252° | - | - |
| 1778007191 | 27.78° C | 71% | - | 0 mm | 0.45 m/s, 245° | - | - |
| 1778006888 | 27.78° C | 70% | - | 0 mm | 0.89 m/s, 210° | - | - |
| 1778006585 | 27.78° C | 72% | - | 0 mm | 0.89 m/s, 235° | - | - |
| 1778006282 | 27.78° C | 71% | - | 0 mm | 0.89 m/s, 231° | - | - |
| 1778005979 | 27.78° C | 71% | - | 0 mm | 0.45 m/s, 208° | - | - |
| 1778005676 | 27.22° C | 71% | - | 0 mm | 1.79 m/s, 227° | - | - |
| 1778005372 | 27.78° C | 71% | - | 0 mm | 2.24 m/s, 202° | - | - |
| 1778005069 | 27.22° C | 71% | - | 0 mm | 1.34 m/s, 195° | - | - |
| 1778004766 | 27.22° C | 70% | - | 0 mm | 1.34 m/s, 219° | - | - |
| 1778004462 | 26.67° C | 72% | - | 0 mm | 2.24 m/s, 161° | - | - |
| 1778004159 | 27.22° C | 71% | - | 0 mm | 0.45 m/s, 244° | - | - |
| 1778003856 | 27.22° C | 72% | - | 0 mm | 2.24 m/s, 219° | - | - |
| 1778003552 | 27.22° C | 72% | - | 0 mm | 1.34 m/s, 206° | - | - |
| 1778003249 | 27.78° C | 70% | - | 0 mm | 0.89 m/s, 230° | - | - |
| 1778002946 | 27.22° C | 69% | - | 0 mm | 2.24 m/s, 57° | - | - |
| 1778002642 | 27.22° C | 71% | - | 0 mm | 2.24 m/s, 202° | - | - |
| 1778002339 | 26.67° C | 71% | 1012.8 hPa | 0 mm | 0.89 m/s, 275° | 503 W/m² | - |
| 1778002036 | 27.22° C | 72% | 1012.8 hPa | 0 mm | 0.89 m/s, 195° | 664 W/m² | - |
| 1778001733 | 26.67° C | 73% | 1012.8 hPa | 0 mm | 0 m/s | 831 W/m² | - |
| 1778001432 | 26.67° C | 72% | 1012.8 hPa | 0 mm | 1.34 m/s, 225° | 357 W/m² | - |
* Rain latest hour (hover to see other rain measurements)
** Current wind speed in m/s (hover to see current wind gust speed)